CW8014 Weather Reports


Display with metric or nautical units.
time (UTC)temp
F
wind
direction
speed
MPH
gust
MPH
rain 1hr
in
rain 24hr
in
rain mn
in
humidity
%
barometer
mb
20260505212410 50 119 3.0 6.0 0.00 0.00 0.00 83 1009.7
20260505211407 50 5 5.0 11.0 0.00 0.00 0.00 83 1009.7
20260505210407 50 17 3.0 7.0 0.00 0.00 0.00 84 1009.8
20260505205407 50 360 4.0 10.0 0.00 0.00 0.00 83 1009.9
20260505204407 50 25 5.0 10.0 0.00 0.00 0.00 83 1009.9
20260505203407 50 9 5.0 11.0 0.00 0.00 0.00 83 1010.0
20260505202407 50 344 5.0 12.0 0.00 0.00 0.00 84 1010.0
20260505201410 50 346 5.0 9.0 0.00 0.00 0.00 84 1009.9
20260505195407 50 9 4.0 10.0 0.00 0.00 0.00 84 1009.9
20260505193408 50 355 4.0 11.0 0.00 0.00 0.00 84 1009.8
20260505192407 51 355 4.0 9.0 0.00 0.00 0.00 85 1009.8
20260505191408 51 11 5.0 10.0 0.00 0.00 0.00 84 1009.7
20260505190408 51 360 4.0 9.0 0.00 0.00 0.00 85 1009.6
20260505185408 51 342 4.0 8.0 0.00 0.00 0.00 84 1009.6
20260505183408 51 345 7.0 12.0 0.00 0.00 0.00 84 1009.5
20260505181408 51 5 6.0 12.0 0.00 0.00 0.00 84 1009.5
20260505175408 52 37 6.0 11.0 0.00 0.00 0.00 83 1009.7
20260505174411 52 328 6.0 13.0 0.00 0.00 0.00 83 1009.6
20260505173408 52 360 7.0 12.0 0.00 0.00 0.00 82 1009.7
20260505172408 52 9 7.0 13.0 0.00 0.00 0.00 82 1009.7
20260505171408 53 13 7.0 12.0 0.00 0.00 0.00 82 1009.8
20260505165409 54 346 8.0 13.0 0.00 0.00 0.00 80 1009.7
20260505164409 54 11 4.0 9.0 0.00 0.00 0.00 81 1009.7
20260505163412 54 97 3.0 9.0 0.00 0.00 0.00 81 1009.7
20260505162409 54 5 6.0 11.0 0.00 0.00 0.00 78 1009.7
20260505161409 55 333 6.0 11.0 0.00 0.00 0.00 78 1009.6
20260505160409 55 51 4.0 9.0 0.00 0.00 0.00 77 1009.7
20260505151409 56 355 5.0 10.0 0.00 0.00 0.00 74 1010.0
20260505150409 56 355 5.0 9.0 0.00 0.00 0.00 77 1010.0
20260505140404 56 5 5.0 11.0 0.00 0.00 0.00 79 1010.3
20260505124405 54 360 2.0 5.0 0.00 0.00 0.00 83 1010.9
20260505123406 53 350 4.0 9.0 0.00 0.00 0.00 81 1011.0
20260505122405 53 15 3.0 8.0 0.00 0.00 0.00 80 1011.0
20260505121405 53 24 2.0 4.0 0.00 0.00 0.00 82 1010.9
20260505120406 53 5 3.0 6.0 0.00 0.00 0.00 82 1011.0
20260505115405 54 325 3.0 7.0 0.00 0.00 0.00 83 1011.0
20260505114405 53 57 3.0 8.0 0.00 0.00 0.00 84 1011.1
20260505112405 53 355 4.0 8.0 0.00 0.00 0.00 83 1011.1
20260505111406 52 350 4.0 8.0 0.00 0.00 0.00 82 1011.2
20260505110408 53 69 2.0 4.0 0.00 0.00 0.00 83 1011.3
20260505101406 51 19 3.0 5.0 0.00 0.00 0.00 83 1011.5
20260505100406 51 26 5.0 11.0 0.00 0.00 0.00 84 1011.6
20260505095406 51 325 5.0 9.0 0.00 0.00 0.00 84 1011.6
20260505094406 51 42 6.0 12.0 0.00 0.00 0.00 84 1011.6
20260505093409 51 35 4.0 9.0 0.00 0.00 0.00 85 1011.6
20260505091407 50 62 3.0 8.0 0.00 0.00 0.00 85 1011.8
20260505090406 50 14 4.0 9.0 0.00 0.00 0.00 86 1011.9
20260505084407 50 76 3.0 8.0 0.00 0.00 0.00 85 1012.1
20260505083409 50 24 3.0 5.0 0.00 0.00 0.00 86 1012.1
20260505082406 50 30 3.0 9.0 0.00 0.00 0.00 85 1012.1
20260505074407 48 355 5.0 9.0 0.00 0.00 0.00 87 1012.2
20260505072407 48 21 5.0 10.0 0.00 0.00 0.00 88 1012.1
20260505071407 48 360 5.0 12.0 0.00 0.00 0.00 88 1012.1
20260505070407 47 5 6.0 12.0 0.00 0.00 0.00 88 1012.1
20260505065407 47 15 4.0 8.0 0.00 0.00 0.00 88 1012.2
20260505064407 47 355 4.0 7.0 0.00 0.00 0.00 89 1012.2
20260505063407 47 24 4.0 9.0 0.00 0.00 0.00 89 1012.3
20260505062407 47 344 3.0 10.0 0.00 0.00 0.00 89 1012.2
20260505060407 47 53 4.0 9.0 0.00 0.00 0.00 89 1012.3
20260505055407 47 14 3.0 6.0 0.00 0.00 0.00 89 1012.2
20260505054407 47 33 3.0 8.0 0.00 0.00 0.00 89 1012.2
20260505052407 47 55 5.0 11.0 0.00 0.00 0.00 89 1012.2
20260505051407 47 14 4.0 10.0 0.00 0.00 0.00 89 1012.2
20260505041407 47 42 5.0 10.0 0.00 0.00 0.00 89 1012.1
20260505040407 47 32 3.0 12.0 0.00 0.00 0.00 90 1012.1
20260505035407 47 12 3.0 7.0 0.00 0.00 0.00 89 1012.0
20260505034407 47 66 2.0 4.0 0.00 0.00 0.00 89 1012.1
20260505030407 47 59 3.0 8.0 0.00 0.00 0.00 89 1012.3
20260505025407 47 56 3.0 8.0 0.00 0.00 0.00 89 1012.3
20260505024412 47 36 5.0 10.0 0.00 0.00 0.00 89 1012.4
20260505022412 47 351 4.0 11.0 0.00 0.00 0.00 89 1012.4
20260505021415 47 15 5.0 10.0 0.00 0.00 0.00 90 1012.5
20260505020412 47 36 3.0 7.0 0.00 0.00 0.00 90 1012.6
20260505014412 47 342 4.0 9.0 0.00 0.00 0.00 90 1012.7
20260505013415 47 360 5.0 11.0 0.00 0.00 0.00 90 1012.7
20260505012412 47 9 3.0 9.0 0.00 0.00 0.00 90 1012.8
20260505011412 47 12 4.0 8.0 0.00 0.00 0.00 90 1012.8
20260505010412 47 345 2.0 5.0 0.00 0.00 0.00 90 1012.8
20260505005415 47 333 2.0 7.0 0.00 0.00 0.00 90 1012.8
20260505004412 47 45 4.0 8.0 0.00 0.00 0.00 90 1012.9
20260505003412 47 327 3.0 9.0 0.00 0.00 0.00 91 1012.9
20260505002415 47 346 2.0 9.0 0.00 0.00 0.00 91 1013.0
20260505001412 47 11 3.0 8.0 0.00 0.00 0.00 91 1013.0
20260505000413 47 5 3.0 6.0 0.00 0.00 0.00 91 1013.1
20260504235412 47 5 3.0 6.0 0.00 0.00 0.00 91 1013.1
20260504233412 47 346 5.0 9.0 0.00 0.00 0.00 91 1013.1
20260504232412 47 355 4.0 10.0 0.00 0.00 0.00 90 1013.1
20260504231412 47 322 6.0 11.0 0.00 0.00 0.00 90 1013.2
20260504230412 48 17 5.0 10.0 0.00 0.00 0.00 90 1013.2
20260504223410 58 350 6.0 9.0 0.00 0.02 0.00 87 1012.6
20260504221410 58 350 6.0 9.0 0.00 0.02 0.00 87 1012.6
20260504220410 58 350 6.0 9.0 0.00 0.02 0.00 87 1012.6
20260504215410 58 350 6.0 9.0 0.00 0.02 0.00 87 1012.6
20260504214410 58 350 6.0 9.0 0.00 0.02 0.00 87 1012.6